Luxor, Egypt

2:05 AM EET on May 23, 2018 (GMT +0200)
Luxor

Weather History for HELX - August, 2013

Change the Weather History Date:

Saturday, August 3, 2013

  Actual Average Record
Temperature  
Mean Temperature 91 °F -  
Max Temperature 108 °F 103 °F 113 °F (2011)
Min Temperature 74 °F 76 °F 74 °F (2013)
Cooling Degree Days 26    
Growing Degree Days 41 (Base 50)    
Moisture  
Dew Point 53 °F    
Average Humidity 25    
Maximum Humidity 37    
Minimum Humidity 11    
Precipitation  
Precipitation 0.00 in 0.00 in - ()
Sea Level Pressure  
Sea Level Pressure 29.75 in    
Wind  
Wind Speed 1 mph ()    
Max Wind Speed 7 mph    
Max Gust Speed -    
Visibility 6.0 miles    
Events      
Averages and records for this station are not official NWS values.
T = Trace of Precipitation, MM = Missing Value Source: Averaged Metar Reports

Daily Weather History Graph

Daily Weather History Graph

Search for Another Location

Airport or City:

Astronomy

Aug. 03, 2013 Rise Set
Actual Time 5:16 AM EET 6:33 PM EET
Civil Twilight 4:52 AM EET 6:58 PM EET
Nautical Twilight 4:22 AM EET 7:27 PM EET
Astronomical Twilight 3:52 AM EET 7:57 PM EET
Moon 2:13 AM EET (8/3) 3:57 PM EET (8/3)
Length of Visible Light 14h 06m
Length of Day
13h 17m
Waning Crescent, 11% of the Moon is Illuminated
Aug 3
Waning Crescent
Aug 6
New
Aug 14
First Quarter
Aug 21
Full
Aug 28
Last Quarter

Hourly Weather History & Observations

Time (EET) Temp. Heat Index Dew Point Humidity Pressure Visibility Wind Dir Wind Speed Gust Speed Precip Events Conditions
1:00 AM 86.0 °F - 46.4 °F 25% 29.74 in - Calm Calm - N/A   Clear
2:00 AM 81 °F - 52 °F 25% 29.73 in 6 mi Calm Calm - -  
2:00 AM 80.6 °F - 51.8 °F 37% 29.74 in - Calm Calm - N/A   Clear
3:00 AM 80.6 °F - 42.8 °F 26% 29.74 in - South 2.3 mph - N/A   Clear
4:00 AM 78.8 °F - 44.6 °F 30% 29.74 in - Calm Calm - N/A   Clear
5:00 AM 78.8 °F - 44.6 °F 30% 29.74 in - Calm Calm - N/A   Clear
6:00 AM 75.2 °F - 42.8 °F 31% 29.77 in - Calm Calm - N/A   Clear
7:00 AM 82.4 °F - 46.4 °F 28% 29.77 in - Calm Calm - N/A   Clear
8:00 AM 88 °F - 55 °F 23% 29.79 in 6 mi NW 1.2 mph - -  
8:00 AM 87.8 °F 86.1 °F 55.4 °F 33% 29.80 in - NW 1.2 mph - N/A   Clear
9:00 AM 91.4 °F 89.9 °F 57.2 °F 31% 29.80 in - North 2.3 mph - N/A   Clear
10:00 AM 96.8 °F 95.1 °F 55.4 °F 25% 29.80 in - NNW 2.3 mph - N/A   Clear
11:00 AM 98.6 °F 97.6 °F 57.2 °F 25% 29.80 in - North 2.3 mph - N/A   Clear
12:00 PM 104.0 °F 103.4 °F 57.2 °F 21% 29.77 in - Calm Calm - N/A   Clear
1:00 PM 105.8 °F 104.9 °F 55.4 °F 19% 29.77 in - NW 3.5 mph - N/A   Clear
2:00 PM 106 °F - 55 °F 11% 29.73 in 6 mi WNW 3.5 mph - -  
2:00 PM 105.8 °F 104.9 °F 55.4 °F 19% 29.74 in - WNW 3.5 mph - N/A   Clear
3:00 PM 105.8 °F 104.9 °F 55.4 °F 19% 29.74 in - West 4.6 mph - N/A   Clear
4:00 PM 107.6 °F 106.8 °F 55.4 °F 18% 29.71 in - NW 6.9 mph - N/A   Clear
5:00 PM 105.8 °F 106.8 °F 59.0 °F 22% 29.71 in - NNW 3.5 mph - N/A   Clear
6:00 PM 104.0 °F 104.6 °F 59.0 °F 23% 29.71 in - Calm Calm - N/A   Clear
7:00 PM 100.4 °F 99.7 °F 57.2 °F 24% 29.71 in - North 4.6 mph - N/A   Clear
8:00 PM 98 °F - 57 °F 17% 29.70 in 6 mi NNW 3.5 mph - -  
8:00 PM 96.8 °F 95.8 °F 57.2 °F 27% 29.74 in - NNW 3.5 mph - N/A   Clear
9:00 PM 93.2 °F 91.9 °F 57.2 °F 30% 29.74 in - West 2.3 mph - N/A   Clear
10:00 PM 91.4 °F 89.4 °F 55.4 °F 29% 29.74 in - West 4.6 mph - N/A   Clear
11:00 PM 91.4 °F 89.4 °F 55.4 °F 29% 29.74 in - Calm Calm - N/A   Clear